If you wish to contribute or participate in the discussions about articles you are invited to join SKYbrary as a registered user

 Actions

Genoa/Cristoforo Colombo Airport

From SKYbrary Wiki

LIMJ
Airport
ICAO: LIMJ – IATA: GOA
Summary
Name Genoa/Cristoforo Colombo Airport
Region Europe
Territory Italy IT.gif
Location Sestri Ponente, Genoa, Liguria
Serving Genoa
Elevation 3.962 m <br />13 ft <br />13 ft3.962 m <br />
Coordinates 44° 24' 43.03" N, 8° 50' 46.80" E
Runways
Designator Length Width Surface ROPS
11/29 2915 m9,563.648 ft <br /> 45 m147.638 ft <br /> ASP no/no


METAR
Observation LIMJ 242350Z 34004KT 280V030 CAVOK 10/09 Q1032
Station Genova / Sestri
Date/Time 24 February 2021 23:50:00
Wind direction 340°
Wind speed 04 kts
Lowest cloud amount clouds and visibility OK
Temperature 10°C
Dew point 9°C
Humidity 93%
QNH 1032 hPa
Weather condition n/a

RE
Tag(s) Aquaplaning
WX
Tag(s) Low Level Turbulence

International airport serving Italian port of Genova.

Climatology

Dry-summer subtropical ”Mediterranean" climate (Köppen climate classification Csa) - characterized by hot, dry summers and mild winters. During the summer, subtropical high pressure cells dominate, making rainfall unlikely except for the occasional thunderstorm. In the winter, periodic storms bring rain (snow at higher elevations).

Maps

Terrain

Loading map...

Airport Layout

Loading map...


Accidents & Serious Incidents at or in vicinity of LIMJ

None on SKYbrary